DW6222 Weather Reports


Display with metric or nautical units.
time (UTC)temp
F
wind
direction
speed
MPH
gust
MPH
rain 1hr
in
rain 24hr
in
rain mn
in
humidity
%
barometer
mb
20260502230045 50 321 3.0 10.0 0.00 0.00 0.00 51 1008.6
20260502224544 48 107 2.0 8.0 0.00 0.00 0.00 48 1008.7
20260502223046 51 282 3.0 7.0 0.00 0.00 0.00 49 1009.1
20260502221545 52 90 6.0 11.0 0.00 0.00 0.00 38 1009.2
20260502220049 52 128 6.0 12.0 0.00 0.00 0.00 39 1009.4
20260502214559 52 117 7.0 11.0 0.00 0.00 0.00 38 1009.4
20260502213044 51 119 8.0 13.0 0.00 0.00 0.00 39 1009.6
20260502211547 52 109 8.0 12.0 0.00 0.00 0.00 38 1009.9
20260502210048 52 90 9.0 13.0 0.00 0.00 0.00 37 1010.1
20260502204541 51 119 10.0 16.0 0.00 0.00 0.00 38 1010.3
20260502203059 51 117 9.0 14.0 0.00 0.00 0.00 39 1010.5
20260502201548 52 122 12.0 16.0 0.00 0.00 0.00 37 1010.8
20260502200045 51 101 9.0 15.0 0.00 0.00 0.00 41 1011.1
20260502194543 52 131 10.0 14.0 0.00 0.00 0.00 38 1011.4
20260502193046 52 128 9.0 13.0 0.00 0.00 0.00 42 1011.5
20260502191541 52 115 12.0 15.0 0.00 0.00 0.00 40 1011.7
20260502190038 51 98 5.0 12.0 0.00 0.00 0.00 42 1011.9
20260502184545 51 161 2.0 5.0 0.00 0.00 0.00 43 1012.0
20260502183044 48 300 2.0 9.0 0.00 0.00 0.00 55 1012.4
20260502181543 52 96 6.0 11.0 0.00 0.00 0.00 40 1012.8
20260502163039 41 319 0.0 8.0 0.00 0.00 0.00 70 1014.1
20260502161539 40 329 4.0 9.0 0.00 0.00 0.00 79 1014.3
20260502151547 42 321 2.0 7.0 0.00 0.00 0.00 69 1014.9
20260502123044 34 0 0.0 0.0 0.00 0.00 0.00 86 1015.9
20260502121541 34 0 0.0 0.0 0.00 0.00 0.00 85 1016.0
20260502114608 34 0 0.0 0.0 0.00 0.00 0.00 89 1015.9
20260502113045 32 0 0.0 0.0 0.00 0.00 0.00 91 1016.1
20260502111545 31 0 0.0 0.0 0.00 0.00 0.00 92 1016.0
20260502110046 31 0 0.0 0.0 0.00 0.00 0.00 91 1016.1
20260502104544 31 0 0.0 1.0 0.00 0.00 0.00 91 1016.0
20260502103039 31 0 0.0 0.0 0.00 0.00 0.00 90 1016.0
20260502101601 30 0 0.0 0.0 0.00 0.00 0.00 88 1016.0
20260502070048 34 148 2.0 4.0 0.00 0.00 0.00 87 1016.5
20260502064613 33 207 2.0 4.0 0.00 0.00 0.00 89 1016.5
20260502063052 33 150 1.0 3.0 0.00 0.00 0.00 88 1016.4
20260502061548 33 150 1.0 3.0 0.00 0.00 0.00 88 1016.6
20260502060049 34 263 0.0 2.0 0.00 0.00 0.00 87 1016.7
20260502054546 34 0 0.0 0.0 0.00 0.00 0.00 87 1016.7
20260502053055 35 263 1.0 3.0 0.00 0.00 0.00 87 1016.7
20260502051545 35 263 2.0 3.0 0.00 0.00 0.00 85 1016.9
20260502050045 34 291 2.0 3.0 0.00 0.00 0.00 81 1017.0
20260502044539 34 197 1.0 3.0 0.00 0.00 0.00 84 1017.0
20260502043117 34 197 1.0 4.0 0.00 0.00 0.00 86 1017.0
20260502041543 34 59 0.0 2.0 0.00 0.00 0.00 85 1016.9
20260502040045 34 59 1.0 3.0 0.00 0.00 0.00 83 1016.9
20260502034544 35 59 2.0 3.0 0.00 0.00 0.00 81 1017.0
20260502033044 35 59 2.0 3.0 0.00 0.00 0.00 79 1017.1
20260502031541 35 0 0.0 0.0 0.00 0.00 0.00 78 1017.2
20260502030046 36 0 0.0 0.0 0.00 0.00 0.00 75 1017.0
20260502024542 37 0 0.0 0.0 0.00 0.00 0.00 75 1017.0
20260502023040 37 0 0.0 0.0 0.00 0.00 0.00 73 1017.1
20260502021538 38 329 1.0 2.0 0.00 0.00 0.00 71 1017.2
20260502020037 39 0 0.0 2.0 0.00 0.00 0.00 71 1017.1
20260502014537 39 325 2.0 4.0 0.00 0.00 0.00 72 1017.1
20260502013050 40 310 4.0 5.0 0.00 0.00 0.00 69 1017.0
20260502011545 42 146 1.0 3.0 0.00 0.00 0.00 55 1017.1
20260502010041 42 146 0.0 3.0 0.00 0.00 0.00 54 1017.1
20260502004544 42 133 2.0 5.0 0.00 0.00 0.00 52 1017.2
20260502003046 43 146 4.0 7.0 0.00 0.00 0.00 51 1017.2
20260502001544 43 154 4.0 6.0 0.00 0.00 0.00 48 1017.1
20260502000043 43 144 4.0 8.0 0.00 0.00 0.00 48 1017.1
20260501234543 43 151 5.0 7.0 0.00 0.00 0.00 49 1017.2
20260501233041 43 164 4.0 7.0 0.00 0.00 0.00 49 1017.3
20260501231538 43 140 3.0 9.0 0.00 0.00 0.00 50 1017.3